Hourly Weather Campo Grande

Today, 22 September, Tuesday

Time Temperature Precipitation Wind Pressure Humidity
00:00 +19°C° 0.4 mm 3 mps 711 mmHg 91%
01:00 +19°C° 0.4 mm 3 mps 711 mmHg 91%
02:00 +19°C° 0 mm 3 mps 711 mmHg 90%
03:00 +19°C° 0.1 mm 3 mps 711 mmHg 90%
04:00 +19°C° 0.1 mm 3 mps 711 mmHg 90%
05:00 +19°C° 0.1 mm 3 mps 711 mmHg 90%
06:00 +20°C° 0 mm 3 mps 712 mmHg 85%
07:00 +21°C° 0 mm 3 mps 713 mmHg 79%
08:00 +22°C° 0 mm 4 mps 714 mmHg 74%
09:00 +25°C° 0 mm 3 mps 714 mmHg 65%
10:00 +27°C° 0 mm 3 mps 714 mmHg 56%
11:00 +29°C° 0 mm 3 mps 714 mmHg 47%
12:00 +29°C° 0 mm 3 mps 713 mmHg 46%
13:00 +29°C° 0 mm 3 mps 713 mmHg 46%
14:00 +29°C° 0 mm 3 mps 712 mmHg 45%
15:00 +29°C° 0 mm 3 mps 712 mmHg 47%
16:00 +28°C° 0 mm 3 mps 711 mmHg 49%
17:00 +28°C° 0 mm 3 mps 711 mmHg 52%
18:00 +26°C° 0 mm 4 mps 711 mmHg 57%
19:00 +25°C° 0 mm 4 mps 712 mmHg 62%
20:00 +23°C° 0 mm 5 mps 712 mmHg 67%
21:00 +22°C° 0 mm 5 mps 712 mmHg 69%
22:00 +21°C° 0 mm 6 mps 712 mmHg 71%
23:00 +21°C° 0 mm 6 mps 712 mmHg 73%

Tomorrow, 23 September, Wednesday

Time Temperature Precipitation Wind Pressure Humidity
00:00 +21°C° 0 mm 6 mps 712 mmHg 74%
01:00 +20°C° 0 mm 6 mps 712 mmHg 74%
02:00 +20°C° 0 mm 6 mps 712 mmHg 74%
03:00 +20°C° 0 mm 6 mps 712 mmHg 74%
04:00 +19°C° 0 mm 5 mps 712 mmHg 75%
05:00 +19°C° 0 mm 5 mps 712 mmHg 75%
06:00 +21°C° 0 mm 5 mps 713 mmHg 70%
07:00 +22°C° 0 mm 5 mps 714 mmHg 65%
08:00 +23°C° 0 mm 5 mps 714 mmHg 61%
09:00 +27°C° 0 mm 5 mps 715 mmHg 54%
10:00 +29°C° 0 mm 4 mps 715 mmHg 48%
11:00 +33°C° 0 mm 4 mps 715 mmHg 41%
12:00 +33°C° 0 mm 3 mps 714 mmHg 39%
13:00 +34°C° 0 mm 3 mps 713 mmHg 37%
14:00 +35°C° 0 mm 2 mps 713 mmHg 35%
15:00 +34°C° 0 mm 3 mps 712 mmHg 37%
16:00 +33°C° 0 mm 3 mps 712 mmHg 38%
17:00 +31°C° 0 mm 3 mps 712 mmHg 40%
18:00 +30°C° 0 mm 3 mps 712 mmHg 44%
19:00 +28°C° 0 mm 4 mps 712 mmHg 49%
20:00 +27°C° 0 mm 4 mps 712 mmHg 53%
21:00 +26°C° 0 mm 5 mps 712 mmHg 56%
22:00 +25°C° 0 mm 5 mps 712 mmHg 58%
23:00 +25°C° 0 mm 5 mps 712 mmHg 60%

Day after tomorrow, 24 September, Thursday

Time Temperature Precipitation Wind Pressure Humidity
00:00 +23°C° 0 mm 5 mps 712 mmHg 61%
01:00 +23°C° 0 mm 5 mps 712 mmHg 61%
02:00 +23°C° 0 mm 5 mps 711 mmHg 62%
03:00 +22°C° 0 mm 5 mps 711 mmHg 63%
04:00 +22°C° 0 mm 6 mps 711 mmHg 65%
05:00 +22°C° 0 mm 6 mps 711 mmHg 66%
06:00 +23°C° 0 mm 6 mps 712 mmHg 62%
07:00 +26°C° 0 mm 7 mps 713 mmHg 58%
08:00 +27°C° 0 mm 7 mps 713 mmHg 54%
09:00 +30°C° 0 mm 6 mps 713 mmHg 47%
10:00 +33°C° 0 mm 5 mps 713 mmHg 40%
11:00 +35°C° 0 mm 4 mps 713 mmHg 33%
12:00 +36°C° 0 mm 4 mps 712 mmHg 30%
13:00 +37°C° 0 mm 3 mps 712 mmHg 26%
14:00 +38°C° 0 mm 3 mps 711 mmHg 23%
15:00 +37°C° 0 mm 3 mps 710 mmHg 24%
16:00 +36°C° 0 mm 3 mps 710 mmHg 25%
17:00 +35°C° 0 mm 3 mps 709 mmHg 26%
18:00 +34°C° 0 mm 3 mps 710 mmHg 30%
19:00 +32°C° 0 mm 4 mps 710 mmHg 34%
20:00 +29°C° 0 mm 4 mps 710 mmHg 37%
21:00 +29°C° 0 mm 5 mps 710 mmHg 39%
22:00 +28°C° 0 mm 5 mps 710 mmHg 41%
23:00 +27°C° 0 mm 5 mps 710 mmHg 43%

25 September, Friday

Time Temperature Precipitation Wind Pressure Humidity
00:00 +27°C° 0 mm 6 mps 710 mmHg 43%
01:00 +27°C° 0 mm 6 mps 709 mmHg 43%
02:00 +26°C° 0 mm 6 mps 709 mmHg 42%
03:00 +26°C° 0 mm 6 mps 709 mmHg 42%
04:00 +26°C° 0 mm 5 mps 709 mmHg 42%
05:00 +26°C° 0 mm 5 mps 709 mmHg 42%
06:00 +28°C° 0 mm 5 mps 710 mmHg 39%
07:00 +30°C° 0 mm 6 mps 711 mmHg 36%
08:00 +33°C° 0 mm 6 mps 712 mmHg 33%
09:00 +35°C° 0 mm 5 mps 711 mmHg 29%
10:00 +37°C° 0 mm 5 mps 711 mmHg 25%
11:00 +40°C° 0 mm 4 mps 711 mmHg 22%
12:00 +41°C° 0 mm 4 mps 710 mmHg 20%
13:00 +41°C° 0 mm 4 mps 709 mmHg 19%
14:00 +42°C° 0 mm 3 mps 708 mmHg 18%
15:00 +40°C° 0 mm 3 mps 708 mmHg 19%
16:00 +39°C° 0 mm 2 mps 708 mmHg 20%
17:00 +38°C° 0 mm 2 mps 707 mmHg 21%
18:00 +36°C° 0 mm 2 mps 707 mmHg 25%
19:00 +34°C° 0 mm 2 mps 707 mmHg 28%
20:00 +32°C° 0 mm 2 mps 707 mmHg 32%
21:00 +31°C° 0 mm 2 mps 707 mmHg 33%
22:00 +31°C° 0 mm 2 mps 707 mmHg 34%
23:00 +30°C° 0 mm 2 mps 707 mmHg 35%

26 September, Saturday

Time Temperature Precipitation Wind Pressure Humidity
00:00 +30°C° 0 mm 2 mps 707 mmHg 35%
01:00 +29°C° 0 mm 3 mps 707 mmHg 36%
02:00 +29°C° 0 mm 3 mps 707 mmHg 37%
03:00 +28°C° 0 mm 3 mps 707 mmHg 38%
04:00 +28°C° 0 mm 3 mps 707 mmHg 39%
05:00 +28°C° 0 mm 3 mps 708 mmHg 40%
06:00 +32°C° 0 mm 4 mps 708 mmHg 35%
07:00 +34°C° 0 mm 5 mps 709 mmHg 29%
08:00 +36°C° 0 mm 6 mps 710 mmHg 24%
09:00 +39°C° 0 mm 6 mps 710 mmHg 22%
10:00 +40°C° 0 mm 6 mps 709 mmHg 19%
11:00 +42°C° 0 mm 6 mps 709 mmHg 17%
12:00 +42°C° 0 mm 6 mps 708 mmHg 16%
13:00 +43°C° 0 mm 5 mps 708 mmHg 16%
14:00 +43°C° 0 mm 5 mps 707 mmHg 15%
15:00 +42°C° 0 mm 4 mps 707 mmHg 16%
16:00 +40°C° 0 mm 3 mps 706 mmHg 17%
17:00 +39°C° 0 mm 3 mps 706 mmHg 18%
18:00 +37°C° 0 mm 2 mps 706 mmHg 20%
19:00 +34°C° 0 mm 1 mps 706 mmHg 21%
20:00 +32°C° 0 mm 1 mps 706 mmHg 23%
21:00 +32°C° 0 mm 1 mps 706 mmHg 24%
22:00 +31°C° 0 mm 1 mps 706 mmHg 25%
23:00 +31°C° 0 mm 2 mps 706 mmHg 25%

27 September, Sunday

Time Temperature Precipitation Wind Pressure Humidity
00:00 +30°C° 0 mm 2 mps 706 mmHg 26%
01:00 +30°C° 0 mm 3 mps 706 mmHg 26%
02:00 +30°C° 0 mm 4 mps 706 mmHg 26%
03:00 +29°C° 0 mm 4 mps 706 mmHg 28%
04:00 +29°C° 0 mm 4 mps 706 mmHg 30%
05:00 +29°C° 0 mm 4 mps 707 mmHg 32%
06:00 +32°C° 0 mm 4 mps 707 mmHg 31%
07:00 +33°C° 0 mm 5 mps 708 mmHg 30%
08:00 +35°C° 0 mm 6 mps 709 mmHg 29%
09:00 +38°C° 0 mm 6 mps 709 mmHg 26%
10:00 +39°C° 0 mm 6 mps 709 mmHg 24%
11:00 +41°C° 0 mm 6 mps 709 mmHg 21%
12:00 +41°C° 0 mm 5 mps 708 mmHg 22%
13:00 +40°C° 0 mm 5 mps 708 mmHg 22%
14:00 +40°C° 0 mm 4 mps 707 mmHg 22%
15:00 +38°C° 0 mm 4 mps 707 mmHg 23%
16:00 +37°C° 0 mm 3 mps 707 mmHg 24%
17:00 +37°C° 0 mm 2 mps 706 mmHg 25%
18:00 +35°C° 0 mm 2 mps 706 mmHg 30%
19:00 +32°C° 0 mm 2 mps 706 mmHg 35%
20:00 +30°C° 0 mm 2 mps 707 mmHg 40%
21:00 +30°C° 0 mm 2 mps 707 mmHg 41%
22:00 +29°C° 0 mm 2 mps 707 mmHg 43%
23:00 +29°C° 0 mm 2 mps 707 mmHg 45%
Show more